Weather in Lukovetskiy

Russia / Arkhangel'skaya Oblast'     64°17′28″N   41°55′21″E
temp.,
°C
wind,
m/s
gust,
m/s
humid.,
%
clouds,
%
prec.,
mm/h
press.,
hPa
HPBL,
m
28 november, sun
sun2800:00−15ne1398100 0.0 101261
03:00−15ene2597100 0.0 1011107
06:00−15ne2795100 0.0 1010167
09:00−15ne3893100 0.0 1010235
12:00−14ne399398 0.0 1008263
15:00−14nne3993100 0.0 1008279
18:00−14nne3991100 0.0 1007322
21:00−14nne3992100 0.0 1007320
29 november, mon
mon2900:00−14nne3892100 0.0 1007301
03:00−14n2693100 0.0 1008234
06:00−15nnw2498100 0.0 1010114
09:00−16nnw259892 0.0 1012121
12:00−16nnw139668 0.0 101494
15:00−18n129763 0.0 101536
18:00−18ne129726 0.0 101642
21:00−18ene259728 0.0 101575
30 november, tue
tue3000:00−16ene399388 0.0 1014182
03:00−15ene4129191 0.0 1012288
06:00−15ene41489100 0.0 1008371
09:00−15ene51783100 0.0 1004469
12:00−13ene61684100 0.0 1000583
15:00−13ene61784100 0.0 995617
18:00−11ene61682100 0.0 992633
21:00−11ene61677100 0.0 988678
1 december, wed
wed100:00−10ne51487100 0.0 985715
03:00−9ene51287100 0.3 983693
06:00−9ne41189100 0.1 983611
09:00−9ene41093100 0.4 983587
12:00−8ene3993100 0.5 984520
15:00−8ene3895100 1.1 984405
18:00−8ene2695100 0.9 984275
21:00−7ene1496100 1.5 984182
2 december, thu
thu200:00−7ene0197100 0.8 98443
03:00−7s2496100 1.4 984235
06:00−8sse2396100 1.2 984229
09:00−9se1397100 2.0 98596
12:00−8s1396100 0.4 986189
15:00−10s119999 0.6 98716
18:00−11s119899 0.1 98822
21:00−12s009986 0.1 98911